Theta_e
312 312 312 311 311 311 310 308 305 304 305 303 303 304 304 305 306 306 307 307 306 307 308 308 308 308 309 309 310 310 310 311 313 313 317 321 316 315 310 311 318 315 319 326 328 332 331 334 341 347 349 348 348 348 350 350 350 354 360 359 351 352 353 354 359 355 356 363 362 360 361 361 361 359 357 356 356 355 355 353 350 350 350 350 351 351 351 350
312 311 311 312 311 310 309 307 304 304 304 303 303 303 304 305 306 307 307 307 307 307 308 309 308 308 308 309 310 310 311 313 316 319 324 321 317 314 308 314 321 317 322 329 328 328 329 333 340 347 348 347 348 349 351 351 351 356 359 356 352 355 354 352 355 355 358 362 362 361 361 361 360 358 357 359 358 356 356 353 351 350 350 351 351 351 351 350
312 311 311 311 311 310 308 305 304 305 304 303 303 303 304 305 306 307 308 308 307 307 307 308 309 309 309 309 310 310 312 316 325 330 328 320 315 312 309 317 324 317 322 329 325 323 327 334 342 347 347 346 347 348 351 351 351 355 356 355 356 355 353 351 353 355 357 361 363 362 360 360 359 356 357 360 358 357 357 353 352 352 351 350 349 350 351 350
311 310 311 311 310 309 305 303 304 304 303 303 303 304 305 305 307 308 308 308 307 307 307 308 309 309 309 309 310 311 315 323 327 327 325 317 312 311 310 321 326 318 323 327 322 321 328 337 341 344 346 347 345 345 348 349 350 352 354 356 356 353 353 352 350 354 357 360 363 362 361 360 357 355 356 359 357 358 357 352 352 351 350 349 347 349 351 350
310 310 310 309 308 305 302 303 305 304 304 304 305 306 306 307 308 308 308 309 308 307 307 308 308 308 309 310 310 313 319 325 322 326 323 312 311 312 317 327 326 321 326 325 321 324 331 337 338 341 346 346 344 346 347 346 346 348 352 353 352 351 352 349 346 353 356 358 363 362 362 360 357 356 356 357 359 360 355 351 350 349 349 348 347 348 351 350
309 309 308 307 305 302 302 304 305 305 306 306 307 307 308 308 309 309 309 309 308 308 308 308 308 309 310 310 313 316 321 322 320 326 321 309 312 317 328 334 327 325 325 321 322 328 333 334 336 340 345 346 346 348 347 343 343 348 349 347 347 347 348 347 345 354 356 358 363 362 361 359 358 358 355 355 358 356 352 349 349 349 349 349 348 348 349 348
309 309 308 306 303 304 305 306 306 307 308 308 309 309 309 309 309 310 310 309 309 308 308 309 308 309 310 312 316 318 320 320 322 327 319 311 318 325 334 335 329 327 322 321 324 328 332 332 333 339 345 348 345 347 345 341 343 347 349 346 345 345 345 344 344 351 355 357 361 359 360 360 360 360 356 355 355 352 350 348 348 350 351 350 348 347 347 348
310 310 309 307 305 307 307 308 308 309 309 310 310 310 310 310 310 311 311 310 309 308 308 309 309 309 311 314 317 318 319 321 323 326 317 314 324 329 332 329 325 324 320 323 324 327 332 330 333 336 343 347 343 345 343 341 343 344 347 346 344 343 341 341 340 347 353 356 358 358 360 361 359 358 357 355 353 351 349 347 348 349 349 349 348 347 348 349
311 311 310 309 309 309 309 310 310 310 310 310 310 310 310 310 311 312 312 311 309 308 309 309 309 309 314 317 317 317 319 320 324 324 316 316 322 324 327 323 321 322 320 322 323 328 331 331 335 335 341 344 339 343 341 341 344 343 343 342 339 338 335 335 335 342 353 355 357 359 360 360 356 356 357 356 352 350 349 348 348 347 347 348 348 348 348 347
311 311 311 310 311 311 311 311 311 311 311 310 311 310 310 312 313 313 313 312 310 309 309 309 309 311 316 317 317 318 319 319 324 323 316 317 320 320 323 321 320 321 321 319 322 329 329 331 335 331 336 342 337 336 336 339 339 335 335 334 333 333 331 330 330 341 353 355 356 359 360 359 355 356 360 356 352 350 349 349 348 347 347 347 347 348 350 350
311 311 311 311 311 311 311 312 311 311 311 311 311 310 311 313 314 314 313 312 310 309 309 309 310 313 317 316 316 318 320 321 324 323 318 318 319 319 320 320 319 319 318 317 320 325 327 330 332 329 333 336 335 333 331 331 331 329 332 332 332 331 330 328 330 343 354 356 355 357 359 359 355 357 360 356 352 350 350 350 348 348 348 347 347 348 350 351
311 311 311 311 311 311 311 311 311 311 311 311 311 311 313 314 314 315 314 313 311 310 310 309 311 315 318 317 316 317 321 324 325 323 320 318 319 320 320 320 319 318 317 316 318 322 326 328 328 330 329 328 333 334 330 327 327 330 331 332 334 331 332 334 340 347 353 356 355 355 355 358 360 357 357 354 351 351 350 350 349 348 348 347 348 347 349 350
311 310 310 310 311 311 311 311 311 311 311 311 311 312 314 315 315 315 315 314 311 310 310 310 312 315 318 318 317 317 320 324 326 323 321 319 319 321 322 321 319 319 317 316 316 319 324 325 326 329 325 325 331 330 328 327 328 332 330 329 333 333 332 339 350 351 353 355 354 353 345 349 362 357 354 354 351 351 351 350 349 349 348 347 348 348 348 350
310 310 310 310 310 311 311 311 311 311 311 311 311 313 315 315 315 317 317 313 311 311 310 310 313 317 318 318 319 319 321 324 326 325 322 320 321 323 324 323 319 318 318 317 316 318 320 320 322 326 323 325 328 326 329 331 330 330 330 329 329 328 325 336 352 353 355 354 354 354 340 343 359 356 354 354 350 352 352 351 350 349 349 348 348 348 348 349
310 310 310 310 310 311 311 311 311 311 312 311 312 314 315 316 317 318 317 313 312 311 310 311 315 319 321 320 321 321 322 325 325 326 324 322 323 325 326 324 321 318 318 318 317 317 317 317 322 327 326 325 325 328 334 335 331 329 329 328 326 324 324 337 353 353 355 355 353 352 342 345 355 354 355 353 350 353 352 352 351 349 349 348 348 348 347 348
309 310 310 310 310 311 311 311 312 312 312 312 313 315 316 316 316 315 314 312 311 310 312 315 317 320 322 321 322 322 323 324 322 322 325 324 323 326 326 325 323 321 320 319 318 317 315 317 322 326 327 327 329 332 335 333 329 329 328 324 321 322 322 328 344 352 354 355 356 353 348 349 352 352 355 353 351 353 353 353 351 350 350 349 348 347 348 348
310 310 310 311 311 311 311 312 312 312 312 312 314 316 315 314 313 313 312 312 313 314 317 320 319 320 321 320 321 320 320 320 317 317 323 325 324 325 326 326 325 322 321 320 319 317 315 316 321 326 327 328 330 332 334 330 326 327 327 324 321 323 322 320 334 351 354 355 358 356 354 352 351 353 355 353 352 353 353 353 352 351 351 350 348 347 348 348
311 311 310 311 311 311 311 312 312 312 312 312 315 315 314 314 313 313 313 314 316 317 318 320 319 319 318 318 319 318 318 318 316 314 320 326 325 324 326 326 325 324 322 320 319 318 316 317 322 328 330 329 331 332 331 328 327 325 324 323 322 322 323 321 328 341 349 355 357 357 358 356 353 354 355 353 353 353 354 353 352 352 350 350 350 347 348 348
312 311 311 312 312 312 312 312 312 312 312 313 315 316 316 316 315 315 315 315 316 316 315 317 319 318 317 319 318 317 317 316 315 313 317 325 326 323 324 326 325 325 322 319 319 318 317 321 324 327 331 332 332 333 333 330 329 328 326 325 323 322 324 326 328 328 337 351 354 355 355 355 355 355 356 354 352 353 354 352 352 352 351 351 350 348 348 347
312 312 312 312 312 312 312 312 312 312 312 314 315 315 315 315 315 315 315 315 314 314 314 316 319 319 317 317 315 315 314 312 313 311 314 322 324 321 321 323 324 323 321 319 320 319 321 324 325 327 331 334 333 334 334 330 328 331 329 328 326 324 324 328 331 326 331 342 346 352 354 353 354 354 356 355 353 354 353 353 352 352 351 350 350 349 348 347
313 313 313 313 313 313 313 312 312 312 313 314 314 314 314 313 314 313 313 313 313 313 314 314 317 317 316 316 315 314 313 312 312 310 312 318 321 318 316 320 324 323 321 321 322 322 324 325 327 330 332 333 333 331 330 329 329 330 330 328 326 325 326 329 330 325 329 334 335 340 345 347 350 351 354 354 355 356 353 353 353 351 351 350 350 350 348 347
313 313 313 313 313 313 313 313 312 313 314 314 313 314 314 314 314 313 312 313 313 311 311 312 312 313 314 314 314 313 312 313 312 311 313 315 316 315 314 319 324 324 323 323 325 324 324 326 329 332 331 332 332 329 329 330 331 331 330 327 324 325 326 326 327 324 326 329 328 329 331 333 336 341 351 356 355 355 354 353 352 352 352 350 350 350 349 347
314 314 314 314 314 314 313 312 312 313 314 315 314 314 315 314 315 313 311 313 313 311 311 311 311 312 313 313 313 313 313 313 312 311 314 313 313 313 315 320 322 324 326 325 326 325 323 326 330 332 331 334 333 330 330 332 332 332 330 326 323 326 325 321 323 326 327 326 326 328 325 325 328 330 340 351 354 354 354 353 352 352 351 350 349 349 349 347
314 314 314 315 314 314 313 312 312 313 314 315 315 314 314 315 315 312 311 313 314 314 312 311 311 312 314 312 312 313 312 312 311 312 316 314 312 313 316 320 322 324 327 327 328 327 327 329 330 331 332 334 333 331 332 332 331 331 331 327 325 328 326 323 326 328 328 325 324 325 319 322 335 336 334 343 351 354 354 353 354 352 351 350 349 348 348 348
315 314 315 315 315 313 312 312 312 313 314 315 314 314 314 316 315 312 312 314 314 314 312 311 312 312 312 311 311 312 311 311 310 312 316 315 312 315 316 318 321 324 325 327 329 329 330 329 328 331 332 332 333 332 332 332 330 328 331 331 329 330 329 328 329 326 322 319 321 323 315 318 333 338 339 345 351 355 355 355 356 353 352 351 349 349 348 348
315 315 316 315 314 313 312 313 312 312 314 315 314 314 315 316 315 313 314 316 313 312 313 311 312 312 310 309 310 310 311 311 310 313 318 317 313 315 316 317 318 321 324 327 328 328 328 326 327 331 331 330 332 330 329 330 328 326 328 330 330 331 330 329 328 323 317 316 321 321 316 317 321 326 341 350 351 355 356 355 356 355 354 352 350 350 348 348
315 315 316 316 314 313 314 314 312 312 315 315 314 314 315 316 314 313 315 316 313 312 312 310 310 311 309 309 309 309 310 311 312 313 315 316 314 314 316 317 317 318 321 324 323 323 326 325 326 330 329 329 330 328 328 329 327 325 326 328 329 330 329 329 327 323 320 320 321 320 320 316 313 324 348 355 353 357 358 357 356 355 354 353 351 350 348 348
316 316 316 316 315 314 314 314 313 314 314 314 315 315 316 315 313 313 316 316 314 312 311 309 309 309 309 308 309 310 310 310 313 313 311 313 313 313 315 317 318 317 318 321 320 319 321 323 325 328 328 327 328 328 328 327 327 326 326 326 328 329 329 329 326 322 320 319 317 318 319 315 314 331 351 354 351 351 353 355 356 356 355 354 353 350 349 348
316 316 317 317 316 315 315 313 313 314 314 314 316 316 315 313 312 315 318 316 313 311 310 310 310 309 309 309 309 310 310 309 313 313 311 312 312 313 314 314 315 314 314 318 320 317 314 316 321 324 324 324 325 324 325 327 327 326 324 324 325 326 326 326 325 320 318 317 316 316 317 314 317 333 344 344 344 342 344 348 350 354 355 354 353 352 351 349
316 317 317 317 317 316 315 314 314 315 316 316 317 316 314 314 315 318 318 315 312 310 310 310 310 310 310 310 309 310 310 310 311 312 311 312 312 312 312 311 312 314 313 314 317 315 312 315 317 317 316 317 317 317 321 325 325 323 324 324 323 323 324 324 323 320 317 318 317 316 317 312 316 330 339 341 342 342 343 344 344 348 351 353 354 352 351 350
317 318 318 318 318 316 315 316 315 316 317 318 318 315 314 315 316 318 316 313 311 310 310 310 310 309 309 310 310 310 311 311 311 312 312 312 312 312 312 312 314 314 314 313 314 314 313 315 315 314 313 313 313 313 316 319 321 322 324 322 318 319 321 320 319 319 319 318 316 316 316 314 320 332 340 342 342 342 342 343 342 343 345 349 352 351 351 350
318 319 318 318 318 317 317 317 317 317 318 318 317 315 315 315 316 316 315 312 310 310 311 311 310 309 309 311 311 310 312 312 310 311 311 311 312 311 311 312 312 313 313 312 313 314 313 314 313 313 314 313 313 315 314 315 319 322 321 318 316 317 319 318 318 318 318 317 316 316 313 318 329 337 340 342 341 339 340 341 341 341 342 346 349 350 350 349
319 319 317 316 316 316 316 317 318 318 318 318 315 315 316 316 315 316 314 311 310 310 310 311 309 308 310 311 311 310 311 311 311 311 310 311 312 311 310 311 310 312 313 312 312 311 312 313 313 313 314 313 313 315 314 314 318 319 318 316 316 317 319 320 319 318 318 316 315 316 313 319 330 336 338 341 338 338 339 339 340 341 341 342 347 350 349 348
320 318 316 315 315 315 316 317 318 318 317 315 313 314 316 315 315 315 313 311 311 310 309 309 308 309 310 310 309 309 311 311 310 311 311 311 312 311 311 311 310 312 313 313 312 311 312 313 312 312 312 312 313 314 312 314 315 316 317 318 317 316 318 319 318 317 317 315 314 314 314 320 328 332 337 339 336 337 338 338 340 340 340 340 343 347 348 348
320 316 315 315 314 315 315 317 318 317 315 313 313 314 314 313 313 312 312 311 311 311 309 308 310 311 310 310 309 309 311 311 310 310 311 311 311 310 310 310 310 311 312 312 312 312 312 311 312 312 311 311 312 313 313 313 314 315 316 318 317 315 318 318 317 316 315 314 314 314 316 322 328 331 336 337 335 337 337 337 339 339 340 339 339 341 343 344
319 316 315 314 314 315 315 317 318 316 314 313 314 314 312 311 311 310 311 311 310 309 310 309 310 311 310 310 311 310 311 311 310 311 311 310 310 310 310 310 309 310 311 312 312 312 312 311 311 312 311 312 312 312 312 312 314 316 315 315 315 315 318 318 317 317 315 313 317 318 320 325 327 329 335 337 336 336 336 337 338 338 339 339 339 338 338 339
319 317 317 315 313 314 316 317 316 314 314 314 314 313 312 311 310 309 310 310 308 308 310 310 309 310 310 311 311 310 311 311 310 311 311 310 310 310 309 310 309 310 310 311 312 312 311 311 311 311 311 311 312 311 312 312 313 315 314 314 315 316 317 319 318 317 314 315 321 323 323 327 328 329 335 338 336 336 336 336 337 338 339 339 339 338 337 337
318 317 317 315 313 314 317 317 314 314 315 316 316 313 311 311 310 309 309 308 308 309 310 310 309 309 310 311 310 310 311 311 311 311 311 311 311 310 310 310 310 310 309 310 312 312 311 311 310 311 311 311 312 312 313 313 313 313 313 313 315 316 318 319 318 316 314 318 325 325 324 328 330 332 337 338 337 337 336 336 336 336 337 338 337 337 337 337
318 318 316 314 313 314 316 314 313 315 315 315 316 314 311 310 311 309 309 308 308 309 310 309 309 310 310 310 310 310 310 311 310 311 311 311 311 310 310 310 311 311 309 310 313 312 312 312 310 311 311 311 312 313 312 313 312 313 313 313 314 316 317 318 318 316 316 320 326 325 323 325 330 336 338 338 337 336 335 336 336 335 335 335 336 336 336 336
317 318 316 314 313 314 314 313 314 317 316 314 314 313 312 311 310 310 310 309 308 309 309 309 310 311 310 310 310 310 311 311 310 310 311 311 310 310 311 310 310 311 310 310 312 312 313 312 310 311 312 312 312 311 311 311 312 313 313 313 313 314 316 316 317 316 316 320 324 326 324 322 328 337 338 336 336 334 333 334 334 333 333 333 333 334 334 335
317 318 317 314 313 313 313 314 316 316 314 313 312 312 313 312 310 310 311 310 310 309 309 310 310 310 310 311 311 311 311 312 311 311 312 311 311 312 311 310 309 310 310 311 312 312 313 312 312 312 312 312 311 310 310 310 310 312 312 312 311 312 315 316 317 316 316 319 322 324 324 321 326 335 336 334 334 333 332 332 332 332 331 331 332 332 333 334
318 317 315 314 313 313 313 314 316 315 313 312 311 311 313 313 310 310 311 310 310 310 310 310 310 311 311 311 312 312 312 313 312 312 312 312 312 313 312 310 309 309 310 310 310 312 314 313 314 313 311 311 310 310 310 310 310 311 311 312 311 312 314 316 318 317 316 318 320 322 322 321 325 334 335 332 332 331 330 330 330 330 329 330 331 330 331 332
322 317 315 314 312 313 314 313 315 315 312 311 311 310 311 311 310 310 311 311 311 310 311 311 311 312 312 312 312 312 312 313 312 312 312 312 312 312 311 311 312 311 311 310 310 312 314 314 315 314 312 311 310 310 310 310 310 311 311 311 312 312 312 313 316 318 317 317 319 322 322 321 327 335 334 331 331 329 329 328 328 328 328 328 329 329 330 331
323 319 317 315 312 313 315 313 314 314 312 312 312 311 311 310 310 311 311 311 311 310 311 311 311 312 312 312 312 312 312 313 313 312 312 312 312 312 311 311 314 315 314 313 311 309 311 313 315 315 313 313 313 312 311 311 311 311 310 310 311 312 312 313 316 319 318 316 318 321 322 322 329 335 333 331 330 329 328 327 326 327 327 327 328 328 328 329
320 318 318 316 313 313 313 312 313 314 313 313 312 312 312 311 310 310 310 311 310 310 311 311 310 311 312 312 313 313 313 313 313 312 313 313 312 312 311 311 314 316 316 317 315 311 312 313 314 315 313 313 314 314 313 313 311 310 310 310 311 312 312 314 316 318 317 317 318 319 320 324 331 334 333 331 330 330 329 327 326 326 326 326 326 327 327 328
317 317 317 316 314 312 311 311 312 313 314 315 314 312 312 312 311 310 310 311 310 311 311 311 311 312 312 313 314 313 313 313 313 313 314 313 312 312 311 310 313 316 317 318 316 313 313 312 313 315 314 313 314 313 312 312 311 310 310 310 310 310 312 315 316 316 317 318 319 320 323 329 332 333 333 332 330 329 329 327 326 326 326 325 325 326 326 326
317 316 315 316 315 314 313 312 312 314 314 314 314 313 312 313 312 311 311 311 310 310 312 312 312 312 313 314 314 314 313 313 314 314 313 313 313 312 312 311 312 316 317 315 312 313 314 312 312 314 313 311 312 311 310 311 310 310 310 309 309 311 313 317 318 316 316 317 320 323 328 333 333 332 332 331 329 329 328 327 326 326 325 325 325 325 325 325
316 315 314 315 314 314 314 313 313 314 314 314 314 313 312 313 313 312 312 311 310 311 312 313 313 312 312 313 314 315 315 315 314 314 314 314 313 312 312 311 311 314 314 311 310 313 314 312 311 311 310 309 310 309 309 310 309 309 310 309 310 312 314 318 322 320 319 320 325 328 331 333 332 332 331 329 328 327 327 327 326 325 325 325 324 324 324 323
316 315 314 313 313 314 314 313 313 314 314 316 315 313 313 313 313 312 311 312 312 311 312 314 314 312 312 313 315 316 316 315 315 315 314 314 313 313 312 312 312 312 312 311 312 312 312 312 311 310 310 310 310 310 310 309 309 310 311 312 312 314 315 320 327 327 325 325 328 330 332 333 331 330 329 327 327 326 326 326 325 325 325 325 324 324 323 323
316 316 316 316 315 315 315 313 314 315 315 316 315 314 313 313 313 312 311 312 313 312 312 314 313 313 313 314 315 315 314 315 315 315 314 314 314 314 313 313 312 312 312 312 312 312 313 314 312 311 311 310 310 310 309 309 309 310 312 313 314 315 317 319 324 328 329 329 328 328 331 331 329 328 328 327 327 327 326 326 326 325 325 325 324 323 323 322
314 313 316 318 317 316 315 313 313 316 315 315 315 315 314 313 313 313 312 311 312 312 313 313 313 313 313 314 314 314 313 314 314 313 313 313 313 313 313 312 312 313 313 313 312 313 314 314 312 310 311 310 310 310 309 309 309 310 311 313 314 317 320 321 323 326 330 330 328 328 331 330 328 327 327 327 327 327 326 325 325 325 325 325 324 323 323 323
314 312 313 316 316 315 314 313 313 315 315 314 315 316 315 313 313 314 313 311 311 312 312 312 313 313 314 315 315 313 312 313 313 312 312 311 311 311 311 311 311 312 313 313 313 313 314 313 311 309 310 310 309 310 310 309 309 310 311 312 315 318 322 325 326 327 328 328 327 329 330 329 327 326 327 327 327 327 326 325 324 325 324 324 324 323 322 323
Wind_Speed
17 17 17 17 17 16 16 15 14 13 11 11 12 12 13 14 14 12 11 11 11 10 10 10 9 10 11 12 15 14 13 12 10 7 7 9 8 8 10 18 20 21 23 23 21 18 13 9 11 13 11 6 3 3 4 4 3 2 1 1 1 1 2 3 4 3 2 5 9 10 10 8 9 7 4 6 6 8 7 6 8 8 8 12 19 25 26 25
18 18 18 17 17 16 15 15 15 13 12 12 12 12 13 13 13 13 11 11 11 9 9 9 9 10 11 11 14 14 14 11 8 8 9 6 4 12 15 21 23 24 26 25 24 20 14 10 13 13 9 5 3 3 4 3 3 3 1 1 1 1 2 3 5 3 0 4 10 11 10 8 9 10 6 7 8 9 8 7 9 12 12 16 23 26 25 25
18 18 18 17 17 17 16 15 15 14 13 13 13 12 13 13 13 12 12 11 10 8 8 9 9 10 10 10 13 13 11 8 5 5 5 3 9 15 18 24 25 27 27 26 25 21 16 14 15 12 7 4 3 4 4 3 3 3 2 2 1 1 5 3 5 4 1 5 11 11 10 8 8 9 6 7 10 9 8 9 10 13 15 18 22 25 25 25
18 18 18 18 17 17 16 15 15 14 14 14 14 14 14 13 13 12 12 11 10 8 7 8 10 10 8 9 11 12 8 4 2 2 7 1 14 18 21 26 27 28 27 24 22 18 18 17 13 8 6 4 3 4 4 4 2 1 3 3 1 2 6 4 6 5 2 7 10 10 10 9 8 8 7 9 10 7 8 10 10 14 19 21 21 23 24 24
18 18 18 17 17 16 16 15 15 15 15 15 15 15 15 15 14 13 11 10 9 7 7 8 10 9 7 8 9 9 5 1 1 4 5 5 17 20 23 26 27 28 25 21 18 17 19 16 11 7 4 4 4 4 4 5 3 2 5 6 5 6 8 7 7 2 3 6 9 10 10 8 9 8 8 13 8 3 7 10 12 16 19 22 23 23 23 22
18 18 17 17 16 16 16 16 16 16 16 16 17 16 16 16 16 14 12 10 8 7 6 7 9 7 5 7 7 5 3 1 2 4 2 9 17 20 22 24 25 26 23 20 17 16 15 13 10 7 5 4 6 6 2 5 5 4 5 6 8 8 8 9 6 2 5 7 10 10 8 8 10 8 9 13 4 3 7 10 13 16 18 22 23 22 21 20
18 17 17 17 16 16 16 16 16 17 17 18 18 18 18 17 17 15 12 9 7 7 6 6 7 5 5 6 4 2 1 3 1 2 5 12 17 19 21 22 23 23 21 19 17 13 12 12 10 8 7 5 5 7 3 3 6 6 6 6 9 9 9 11 6 4 6 8 9 8 8 10 11 7 8 11 3 5 9 12 14 16 19 20 19 19 19 20
18 17 17 17 17 17 17 17 17 18 19 19 20 20 19 19 17 15 11 8 7 6 6 5 4 3 4 3 2 0 1 2 2 7 10 16 18 20 22 20 20 22 21 19 16 13 12 11 10 8 7 5 3 7 4 3 6 7 8 8 8 8 10 11 7 5 7 6 7 9 8 9 9 5 7 10 5 7 11 13 15 17 18 18 17 18 18 18
18 18 18 18 18 18 17 18 18 19 20 21 21 21 21 20 17 14 11 8 7 6 5 4 2 1 2 1 3 1 1 1 4 11 14 18 17 20 22 18 19 22 20 16 15 15 12 9 10 6 5 5 4 6 5 4 3 4 8 8 9 11 12 10 7 6 8 5 8 10 8 8 7 4 6 9 7 10 13 15 16 17 18 16 15 17 17 17
19 18 19 19 19 19 19 19 19 20 21 22 22 23 22 19 16 13 11 8 7 7 6 4 2 1 1 1 2 3 2 2 6 14 15 17 17 20 21 18 20 21 17 13 13 15 9 7 8 3 2 5 4 3 3 3 2 3 8 9 10 12 11 7 5 5 7 7 10 10 7 8 8 4 5 8 10 12 15 16 17 17 17 16 15 15 16 17
20 19 19 20 20 20 20 20 20 21 22 22 23 23 22 19 15 14 11 7 8 8 7 5 4 3 2 1 2 2 2 2 8 16 17 17 16 19 19 20 22 20 16 10 11 13 9 8 7 2 1 4 4 2 2 3 5 7 8 8 9 9 8 5 3 6 7 6 10 9 6 7 7 5 4 8 12 14 16 16 17 17 16 16 15 14 13 15
21 20 20 20 20 20 21 21 21 22 22 23 23 23 21 17 15 12 9 7 9 9 7 6 5 4 2 1 4 3 2 3 8 15 18 18 16 17 15 19 22 20 17 11 10 13 10 10 8 3 1 2 4 3 2 3 7 8 5 6 7 8 4 3 1 7 8 5 10 9 6 6 9 6 4 11 13 14 16 16 17 16 15 15 14 13 12 14
21 20 20 21 21 21 21 21 22 22 23 23 23 22 19 15 12 8 5 7 9 9 8 7 6 4 2 2 2 5 2 4 8 12 18 19 15 13 12 16 20 19 16 12 12 15 11 8 8 4 1 1 3 0 3 4 6 5 2 3 5 5 1 5 3 7 7 5 11 9 3 4 9 7 6 12 15 15 15 15 15 14 13 14 13 12 12 14
21 21 21 22 22 21 22 22 22 22 22 22 22 20 15 11 9 7 3 8 10 10 9 8 6 5 2 3 0 3 4 3 6 11 17 18 13 10 9 14 17 15 12 8 10 17 12 5 4 3 0 2 1 2 4 3 3 3 2 1 2 3 1 6 2 8 5 5 10 9 3 1 6 9 9 13 16 16 15 15 15 13 13 13 12 13 12 14
22 22 22 22 22 22 22 22 21 21 21 21 20 15 10 8 7 4 2 9 11 10 10 8 6 4 1 3 1 2 4 3 5 10 14 17 14 9 8 13 13 11 9 5 4 13 12 3 3 4 2 2 2 3 2 0 0 1 2 2 1 2 1 6 3 7 3 4 9 8 3 1 3 9 13 13 16 17 15 15 15 14 15 14 12 13 12 13
23 23 23 23 23 22 22 21 20 20 20 20 16 9 6 6 5 5 7 9 10 10 8 6 5 3 2 1 2 3 4 3 2 6 13 17 13 8 11 12 10 8 8 4 3 6 8 4 2 2 2 2 2 1 0 2 2 1 2 2 1 1 2 3 3 3 2 4 10 9 3 1 3 6 12 14 16 16 14 14 15 15 15 14 12 12 12 12
25 25 25 25 24 23 22 20 20 19 19 17 10 4 7 8 10 12 13 12 11 9 5 4 3 2 2 0 2 3 2 1 2 3 12 17 12 10 13 9 7 8 7 5 3 4 6 5 3 2 2 2 1 1 3 5 4 2 1 1 1 0 2 1 3 2 2 3 7 9 6 0 4 4 10 13 16 16 14 14 15 14 14 13 12 12 13 13
26 26 26 25 24 23 21 19 18 18 18 12 4 6 11 12 11 13 15 13 9 6 4 3 2 2 3 2 1 1 3 2 1 2 8 14 12 12 11 7 8 10 7 6 4 4 5 5 4 3 3 4 3 3 4 4 3 3 2 2 1 1 0 1 3 1 3 4 5 7 8 6 2 6 9 12 14 15 13 13 14 14 14 14 12 12 13 14
27 27 26 25 23 22 20 18 17 17 15 8 5 8 10 9 7 7 9 8 3 1 1 2 2 1 1 2 2 5 6 5 4 1 8 13 13 10 7 8 10 9 7 6 4 5 5 4 5 6 6 6 5 5 4 1 3 4 3 1 1 0 1 2 3 2 3 5 5 7 8 9 6 7 9 11 13 13 12 12 12 13 14 14 13 12 13 14
29 27 25 24 22 21 19 17 16 14 12 5 6 6 4 3 2 1 2 2 3 2 1 2 3 2 3 1 3 7 6 3 2 3 9 13 15 11 6 6 7 5 6 6 6 5 5 6 7 7 6 7 6 6 4 2 3 3 2 1 1 2 2 2 3 2 2 4 5 6 8 9 8 7 10 12 12 12 12 13 12 13 14 14 15 15 15 14
30 27 25 23 21 20 17 16 14 10 8 5 5 4 1 1 0 1 2 3 4 3 4 3 3 5 5 3 4 5 3 1 1 3 9 13 15 12 4 3 6 5 4 6 6 5 5 7 6 6 7 6 5 5 3 2 2 1 1 1 1 2 2 3 4 3 1 3 2 3 7 9 9 7 9 12 13 14 14 15 15 16 15 13 15 17 15 13
29 27 25 23 21 19 17 14 10 5 4 5 5 3 2 1 3 3 2 3 3 3 3 2 2 5 6 6 6 2 1 1 2 3 7 11 10 7 3 4 7 5 4 5 6 6 6 6 6 6 6 5 3 3 3 2 2 2 1 2 2 1 2 2 1 3 1 2 2 1 4 7 8 6 8 13 14 14 16 17 16 17 16 14 15 16 15 14
29 26 25 23 21 19 16 11 5 4 4 5 5 4 2 4 5 5 5 2 3 1 1 2 2 3 3 3 4 5 2 1 3 3 6 10 5 3 5 6 5 5 6 7 6 7 6 5 7 7 5 6 4 4 4 2 2 2 2 4 3 1 1 2 3 3 3 3 4 3 4 6 5 3 6 12 14 13 15 17 15 15 16 16 15 14 14 15
28 26 24 23 21 19 13 4 3 4 4 4 4 4 4 7 4 6 4 2 2 2 1 2 2 3 2 1 5 6 2 1 2 3 6 9 5 2 5 5 5 6 6 6 7 7 4 3 7 7 6 6 4 5 5 4 3 3 3 5 4 2 2 2 1 6 6 1 1 3 4 3 1 1 4 8 12 12 13 14 14 13 14 13 13 13 15 15
27 25 24 22 20 17 7 4 4 5 2 3 1 5 8 8 3 5 3 1 1 1 1 2 1 3 1 1 4 4 1 0 1 0 3 7 6 3 3 2 3 6 6 6 7 6 3 3 7 8 6 5 5 5 5 5 4 3 5 7 6 4 4 3 2 5 4 2 3 4 3 2 1 1 2 4 9 12 12 14 15 14 13 12 12 14 15 15
26 24 23 20 18 14 5 4 5 5 2 2 2 7 9 10 5 5 2 1 1 1 0 2 1 2 2 1 3 2 2 2 1 1 2 3 3 2 4 2 1 3 6 6 4 3 2 3 5 7 7 6 5 5 4 4 5 3 3 6 7 7 6 5 2 2 2 1 1 3 3 2 1 1 3 1 8 11 12 14 15 13 13 13 13 13 14 15
25 23 21 17 15 13 5 0 5 3 3 1 5 9 11 9 2 5 2 1 3 1 0 0 0 2 2 1 2 2 3 2 1 3 4 2 1 0 3 4 2 2 4 4 3 2 3 5 5 6 6 5 5 5 5 7 6 2 3 5 8 8 8 6 4 3 1 3 2 0 2 2 1 4 7 4 5 7 8 12 13 13 13 15 15 15 15 16
24 22 20 15 12 11 6 2 3 1 0 5 7 10 12 5 3 3 3 1 3 1 0 0 0 1 0 1 2 1 1 1 1 2 5 5 4 1 4 5 4 5 3 4 5 3 2 4 5 6 5 5 5 5 6 9 6 3 4 5 5 6 6 6 4 2 0 2 2 2 1 2 1 6 10 7 4 4 5 7 11 13 14 14 15 16 16 16
23 20 18 13 9 8 6 3 1 0 4 7 9 12 10 1 4 2 2 2 2 1 0 1 1 1 0 2 3 2 1 2 1 2 4 5 7 3 2 2 3 6 3 2 4 4 1 1 2 4 4 3 3 2 6 12 6 2 5 4 2 2 3 3 2 2 2 2 4 4 3 3 2 7 9 9 9 10 10 9 8 11 14 14 13 13 14 14
21 19 17 13 9 6 6 4 1 2 6 8 11 12 6 2 2 2 1 2 2 0 0 2 1 1 1 4 3 4 3 4 3 4 3 3 6 6 2 1 2 5 3 2 3 3 1 0 2 3 1 3 2 1 4 10 4 4 7 5 3 3 2 2 1 1 2 4 5 4 4 4 1 5 8 8 9 11 9 9 10 8 10 13 12 11 13 12
19 17 15 13 9 6 4 3 3 6 8 9 11 9 1 2 2 1 3 2 1 1 1 1 1 2 3 5 3 3 4 6 6 4 4 3 6 8 4 0 1 3 3 3 3 3 3 3 1 1 2 4 2 2 2 2 2 2 4 4 4 3 2 3 2 2 4 4 2 2 4 3 1 4 7 8 9 12 10 9 12 13 11 8 11 13 13 13
17 13 12 12 10 6 4 5 8 9 8 9 8 3 2 1 0 2 2 1 1 2 1 0 2 2 5 7 6 4 4 5 6 6 6 4 6 7 5 3 1 3 4 2 2 3 5 3 3 2 1 6 3 4 4 3 3 5 4 5 5 3 3 4 3 3 5 3 1 1 3 3 5 5 7 10 10 12 11 10 11 12 13 11 8 14 13 12
13 8 11 14 13 10 9 9 9 8 7 6 3 1 2 1 3 2 3 2 2 2 1 1 2 2 5 7 6 5 6 5 4 5 4 3 5 5 4 7 5 2 2 1 4 4 3 2 6 5 1 6 7 1 3 3 4 6 5 5 5 4 5 6 4 3 3 3 1 0 1 3 6 5 9 10 10 11 11 11 11 11 12 13 9 10 15 13
7 7 12 16 17 16 13 9 6 6 5 3 1 1 2 4 3 2 3 3 1 1 3 2 1 5 6 5 2 2 6 7 5 5 4 3 4 4 4 9 9 3 1 1 3 1 2 4 5 6 3 6 7 4 1 1 2 2 1 2 4 4 4 5 5 5 5 4 3 2 1 3 7 5 9 9 9 11 10 11 13 13 13 13 12 5 6 10
4 8 13 16 19 19 14 8 4 3 2 1 2 3 4 3 1 2 2 3 2 2 4 2 2 6 6 4 3 2 3 4 3 6 7 5 5 5 4 7 10 6 1 1 2 1 1 3 5 5 2 4 6 4 3 1 2 2 0 2 2 1 1 1 2 2 3 4 4 3 1 3 6 6 10 11 11 13 13 15 16 17 16 13 13 13 9 7
3 5 11 15 21 21 14 6 3 1 0 0 4 5 4 2 2 2 2 3 2 3 3 2 4 5 4 2 3 5 5 3 1 2 6 5 5 6 5 4 7 7 3 1 2 0 2 3 4 4 0 3 7 4 3 2 1 2 2 2 1 1 2 0 2 1 1 5 3 2 3 4 4 4 11 14 14 17 17 17 17 17 18 16 13 12 11 12
2 3 5 12 24 23 12 5 3 1 1 2 6 5 1 1 2 2 3 4 2 2 1 2 4 3 2 3 3 4 4 3 2 2 2 2 3 6 7 3 4 6 4 1 1 1 1 4 3 5 3 5 8 3 1 5 3 1 2 2 3 1 1 1 2 3 4 7 3 4 5 5 1 1 10 16 17 18 18 17 17 17 18 17 15 13 12 11
6 4 2 11 25 22 10 7 5 2 1 4 7 5 0 2 4 3 4 3 1 1 2 3 2 2 1 2 3 5 4 1 2 2 2 3 2 4 6 3 5 8 6 3 0 1 1 2 3 3 3 5 7 1 2 5 7 3 2 2 1 2 2 1 2 4 6 6 4 4 4 6 5 3 10 15 16 16 16 17 17 19 19 16 15 15 15 14
6 3 0 13 26 19 10 8 4 0 4 5 5 4 1 3 6 6 5 3 0 2 3 3 2 3 4 2 3 4 5 3 2 2 2 2 2 3 5 3 4 8 8 4 1 1 2 1 2 3 4 4 4 4 2 5 6 2 2 1 1 1 1 1 0 1 2 4 5 3 2 4 5 6 10 12 13 14 15 16 16 16 16 14 14 15 14 14
5 1 0 18 26 13 8 8 3 3 6 3 1 2 2 2 4 8 8 5 3 3 3 3 2 3 5 4 4 4 6 5 3 2 2 3 1 2 4 3 3 6 7 4 3 1 2 1 1 3 4 1 2 5 4 5 6 2 1 2 2 2 1 1 2 2 1 2 5 5 4 4 4 6 8 10 11 11 12 13 12 13 14 13 13 13 13 13
3 1 2 21 24 6 4 7 4 4 3 2 2 2 3 3 4 8 10 7 5 5 4 4 4 4 4 4 4 3 3 5 4 3 3 3 2 2 4 4 3 5 4 2 4 3 2 1 1 2 4 4 5 3 3 5 6 5 4 3 3 1 1 3 3 1 1 1 1 4 5 4 4 5 6 8 9 9 10 11 10 11 13 13 13 13 13 13
2 1 4 22 20 5 6 5 2 2 2 2 3 2 3 4 5 8 9 7 5 5 5 5 6 5 3 4 4 3 3 4 4 4 4 4 5 3 4 5 4 3 2 1 2 3 1 2 4 4 3 4 5 2 3 4 3 3 5 5 3 2 1 2 3 3 2 2 2 3 5 4 4 5 5 7 8 8 9 10 9 10 11 12 12 13 13 14
2 1 6 21 17 5 7 6 1 3 4 2 2 3 4 4 5 7 7 7 6 4 5 6 4 4 4 4 3 3 3 4 4 4 3 4 6 4 6 8 4 1 1 1 1 1 0 1 3 4 2 1 3 2 2 4 2 1 4 6 5 3 2 2 1 1 2 3 2 3 4 4 4 5 5 6 8 8 9 10 11 10 11 12 13 13 13 13
1 1 4 18 16 5 4 3 2 4 4 2 3 4 4 4 6 8 7 8 6 3 4 5 4 4 4 4 4 3 2 2 4 4 2 2 3 3 6 9 6 3 3 2 0 1 0 1 1 3 3 2 3 3 3 1 3 2 3 6 7 7 4 1 1 0 2 2 1 2 4 4 4 5 5 6 8 9 10 11 11 10 11 12 12 13 13 13
2 1 2 13 18 9 3 1 2 4 3 3 5 5 4 4 5 6 6 7 7 4 3 3 3 4 4 3 5 5 5 4 3 1 1 2 1 2 7 10 8 6 6 4 2 0 1 2 0 2 2 3 2 1 2 1 2 2 3 6 8 9 8 2 1 1 3 2 1 2 5 5 5 5 6 7 8 9 10 10 11 11 11 12 12 12 13 13
1 2 1 5 10 7 3 2 2 2 2 2 4 4 4 3 2 4 5 6 6 6 5 4 3 3 4 5 5 7 8 7 5 3 2 2 2 2 5 7 7 9 8 7 5 1 2 3 2 1 1 1 3 3 1 1 2 1 3 6 8 9 8 3 1 2 3 5 4 4 4 7 6 5 7 8 8 9 9 10 11 11 12 12 12 12 12 12
1 2 2 2 3 3 3 4 4 2 1 1 1 2 4 3 2 4 5 4 5 5 5 5 5 3 3 4 4 5 6 6 6 5 3 2 1 1 4 5 8 11 9 7 6 2 3 3 3 5 7 5 5 5 2 1 3 2 4 6 7 8 7 4 4 3 1 3 4 2 3 6 5 5 7 8 8 8 9 10 11 10 11 12 11 13 15 15
2 2 0 1 1 2 3 4 5 5 5 3 2 2 4 5 4 4 4 3 3 5 3 4 7 7 4 2 2 3 2 3 5 3 2 2 2 1 2 4 7 10 7 5 5 2 3 3 1 4 7 5 4 4 3 2 3 2 3 5 5 6 6 7 7 5 2 2 6 7 6 6 5 4 6 7 7 8 8 9 9 9 11 12 12 14 16 16
2 2 0 1 1 1 2 4 3 5 7 5 3 3 4 5 5 3 3 2 3 5 4 3 5 6 5 3 2 2 1 1 3 1 0 2 2 1 1 2 4 7 6 4 4 2 1 3 3 4 7 6 3 2 2 3 3 3 4 4 3 4 6 6 7 7 7 8 10 11 10 8 5 4 5 6 6 7 6 7 9 11 12 12 13 15 15 15
1 2 0 1 2 2 2 3 2 3 5 3 2 3 2 3 5 3 2 3 3 3 3 4 5 5 5 5 5 4 2 1 3 2 2 1 1 1 1 1 1 4 5 3 2 2 1 2 3 3 5 5 2 2 3 4 3 4 5 5 4 5 6 5 5 6 7 9 10 10 9 7 4 3 3 4 5 6 7 9 10 11 12 12 13 14 14 15
2 1 1 1 2 3 3 2 2 2 3 3 2 2 1 2 3 2 3 4 3 3 3 6 7 5 5 7 7 6 3 1 4 3 2 1 2 1 1 1 0 2 4 2 2 2 1 2 3 3 4 4 1 1 3 3 2 4 5 5 4 4 5 5 4 3 4 6 8 6 5 5 3 2 2 3 5 6 8 10 9 9 11 12 13 13 13 14
2 2 0 1 1 3 2 1 2 1 2 2 2 1 1 2 1 0 3 4 4 5 4 5 5 3 3 5 5 3 1 1 3 4 1 1 3 2 1 2 1 1 3 1 1 2 1 3 4 3 3 4 3 1 3 0 3 3 3 3 3 4 5 5 5 4 3 2 3 3 4 4 3 2 2 3 4 5 7 8 8 9 10 11 11 12 12 12
Wind_Direction
345 345 344 341 339 338 338 340 342 345 353 0 359 359 357 353 350 346 337 328 328 334 338 339 334 322 320 334 338 333 329 318 311 288 238 270 260 209 180 166 166 164 165 165 152 136 132 134 138 150 152 149 162 161 193 219 229 258 254 276 285 19 37 24 355 4 78 147 160 167 177 168 154 155 137 140 131 127 131 104 98 87 97 127 130 137 145 148
344 344 342 340 338 338 338 339 339 342 350 356 356 355 354 349 347 345 336 326 322 326 331 330 330 323 318 327 332 330 328 317 300 267 251 282 213 180 167 163 167 167 166 162 154 145 142 148 148 153 158 154 166 168 191 204 205 238 245 296 260 332 341 321 323 319 279 146 157 170 179 180 165 155 161 162 147 140 134 125 117 105 113 127 132 140 146 151
344 343 340 338 338 338 339 339 339 344 349 350 350 352 349 344 345 343 335 325 317 318 321 322 322 319 321 328 328 328 327 317 287 259 306 314 180 169 162 164 168 170 171 166 162 157 144 144 151 153 154 156 163 176 196 193 195 229 227 265 208 309 315 308 328 314 229 143 158 169 176 184 167 154 169 163 154 161 154 152 146 132 136 138 141 146 149 155
344 342 339 339 339 338 339 340 342 347 348 348 348 348 343 340 341 339 333 322 311 309 310 313 313 312 327 331 326 331 325 301 251 309 348 355 168 161 160 164 168 171 172 167 164 156 137 135 148 149 150 157 156 185 211 201 200 216 214 256 235 325 313 309 333 325 169 156 162 161 170 182 167 160 171 157 158 185 181 170 158 147 147 146 148 151 154 158
342 340 340 341 341 340 341 343 345 346 347 349 347 345 341 337 337 336 330 318 308 301 300 306 307 309 330 332 325 331 320 228 101 352 353 149 161 157 157 164 168 169 168 164 155 145 137 138 145 144 157 162 163 191 222 210 217 254 238 264 273 289 296 299 321 313 149 149 156 161 172 168 160 172 181 174 174 191 179 168 153 148 152 152 153 154 157 161
341 341 341 343 343 343 344 344 345 345 347 348 346 343 340 337 334 332 325 313 304 292 290 299 302 309 331 332 326 329 308 251 14 0 51 154 158 153 155 163 164 164 165 156 143 142 142 146 155 152 166 172 179 194 208 200 210 252 255 265 270 273 278 289 303 196 155 155 166 169 163 146 161 182 188 191 195 77 148 153 147 148 153 153 154 157 160 165
341 341 341 343 345 345 345 345 345 346 347 346 344 341 339 337 332 328 322 308 297 284 279 292 296 307 332 329 321 336 296 292 337 104 146 155 153 148 153 157 158 161 162 148 141 152 149 156 168 157 168 176 191 204 207 193 205 244 267 273 276 278 273 281 287 216 188 180 174 161 152 160 177 180 182 196 186 109 142 144 144 145 150 154 155 160 161 165
340 340 338 341 344 344 343 344 345 346 347 345 342 340 338 336 330 325 318 303 286 270 264 281 287 304 333 323 297 281 237 297 134 144 154 156 149 147 150 149 157 162 159 153 151 156 152 162 168 154 176 176 176 200 211 238 210 232 261 275 283 288 282 282 284 232 202 183 159 153 163 176 178 159 177 192 166 139 145 140 145 146 151 159 159 161 162 164
339 337 337 339 341 341 342 342 344 346 346 343 340 339 338 335 330 320 311 297 270 253 252 263 258 287 346 303 278 203 170 333 149 154 159 163 155 152 155 151 159 162 157 155 154 156 160 169 166 163 189 170 167 192 202 236 206 220 259 282 291 292 293 289 283 231 197 167 154 161 170 170 163 152 183 189 164 146 147 144 148 152 158 163 162 164 165 165
337 335 335 337 338 339 339 339 342 344 344 342 339 338 337 334 328 315 301 281 255 239 230 232 195 153 128 214 258 175 141 15 155 161 167 173 163 158 165 163 163 163 156 150 155 162 169 173 163 158 185 164 176 185 187 226 307 296 277 289 285 285 290 281 271 215 181 168 170 168 162 161 164 189 200 176 165 151 147 151 153 158 164 166 166 166 167 168
336 335 334 335 336 337 337 338 341 342 343 340 338 337 337 332 322 309 292 259 237 227 214 206 165 145 132 184 257 166 104 65 157 165 173 181 173 169 175 174 170 165 155 151 166 171 166 165 165 164 156 160 183 196 213 251 313 301 290 299 285 285 285 270 249 187 168 167 177 162 140 157 168 208 215 162 163 159 152 156 160 164 167 168 168 167 171 171
335 334 334 334 336 336 335 339 341 342 341 339 338 337 335 328 317 306 287 239 219 216 201 184 166 146 122 215 246 207 98 84 154 169 177 184 183 181 182 179 180 175 164 159 177 180 169 164 176 184 123 147 180 197 272 295 301 288 291 309 302 304 306 344 356 176 172 162 168 156 137 177 192 208 188 159 161 161 158 159 164 167 167 169 170 168 173 174
335 334 334 335 337 336 336 340 342 341 340 338 338 336 331 324 314 308 281 214 200 206 189 169 164 146 144 251 243 202 177 88 137 166 178 185 186 184 184 180 183 185 178 173 180 184 175 167 181 177 111 225 169 218 302 293 288 274 265 305 313 305 317 28 34 167 166 153 164 176 181 182 191 193 158 158 161 160 162 165 167 169 169 171 173 172 175 177
336 335 335 336 337 337 336 340 342 340 338 338 338 334 331 324 312 308 265 196 188 192 176 158 156 141 165 269 315 179 191 117 146 167 177 184 178 167 175 178 180 183 180 173 184 188 180 151 173 180 213 274 277 311 297 294 287 281 261 234 319 285 104 38 66 164 150 153 175 197 244 128 165 175 163 161 163 163 166 169 171 171 172 174 175 176 177 180
337 338 338 338 337 337 337 340 342 340 338 339 338 336 334 327 320 317 201 181 181 174 158 148 152 150 270 276 288 158 175 163 174 180 185 185 172 153 164 174 175 177 171 137 162 193 193 166 172 196 201 233 270 286 297 326 333 319 259 201 135 260 333 41 97 169 140 155 190 204 236 270 147 168 168 166 168 167 170 172 174 175 175 177 176 179 181 183
340 341 339 337 337 336 337 339 342 340 337 340 342 347 359 6 32 83 121 147 158 150 144 145 156 185 287 330 116 142 173 188 184 188 194 189 178 155 148 152 152 161 172 150 103 171 186 192 192 217 237 216 249 295 223 198 157 64 258 215 103 256 303 37 100 168 122 142 193 216 247 18 64 166 169 167 173 172 172 174 176 178 178 179 178 180 185 184
343 341 338 336 336 335 337 339 342 339 337 344 351 41 67 70 86 98 109 122 129 122 118 132 144 215 270 233 150 156 199 219 97 140 185 192 189 153 137 129 130 141 150 149 124 127 155 183 194 196 232 217 237 262 204 204 179 147 214 198 104 0 320 352 87 122 194 178 201 220 240 269 70 144 171 172 178 177 177 177 177 179 181 182 182 183 187 188
344 339 336 336 334 334 337 339 341 337 336 348 23 103 91 91 94 102 112 117 117 110 103 118 151 217 217 229 201 200 287 283 25 87 172 184 180 152 135 123 134 139 133 132 140 146 157 179 194 184 195 202 208 211 202 197 175 155 162 173 159 162 180 3 44 88 219 232 222 216 230 241 153 141 173 182 182 183 182 178 178 179 182 185 185 187 189 191
344 339 337 337 335 336 338 340 341 335 336 358 109 116 97 99 98 108 120 121 138 167 121 148 188 219 216 236 312 317 300 290 291 219 161 164 162 145 118 124 136 141 144 146 155 169 169 162 182 200 199 191 191 208 209 125 112 120 113 131 97 236 225 317 327 319 242 233 234 228 233 247 232 168 177 187 186 189 184 178 182 183 184 187 189 191 191 193
344 341 339 339 339 340 341 342 339 332 338 12 141 139 97 111 130 151 151 182 227 250 312 192 192 273 302 272 319 331 323 290 284 161 160 160 153 137 105 123 141 148 155 155 155 165 180 176 186 198 180 170 182 207 213 113 99 113 116 122 53 294 287 301 298 336 296 245 240 240 244 254 249 198 182 187 186 190 185 183 188 188 188 190 191 193 192 194
345 343 342 343 343 342 345 341 336 332 348 26 140 157 94 140 105 333 299 271 241 237 251 234 213 261 279 279 300 342 2 280 42 114 155 157 152 147 132 154 161 159 156 148 135 137 193 197 183 168 153 154 176 190 192 153 150 173 206 242 251 253 283 307 307 354 347 258 256 248 255 258 256 227 187 182 186 193 192 190 193 193 194 194 194 194 191 191
346 346 344 345 344 343 345 338 336 349 8 46 103 118 101 68 315 270 261 294 272 237 231 238 254 263 270 272 266 254 120 220 127 119 147 150 163 172 157 179 176 154 138 150 143 149 194 201 160 147 152 138 119 148 173 177 177 180 203 247 243 227 283 288 332 31 50 275 301 289 265 264 264 248 196 186 192 199 197 196 197 193 191 195 197 195 190 188
348 347 346 345 343 342 342 337 351 37 40 67 91 91 65 343 314 221 205 284 292 275 188 206 219 237 265 262 221 178 173 222 151 154 161 154 168 198 162 173 171 138 150 175 174 166 186 197 166 154 155 148 133 148 166 164 178 200 212 233 234 143 270 212 113 21 334 293 286 280 272 273 273 255 209 202 202 202 201 202 203 195 192 197 197 194 191 188
349 348 346 345 346 344 344 3 65 43 54 100 94 57 8 339 327 188 195 296 293 291 230 216 222 209 254 253 171 165 162 275 166 151 166 159 142 164 172 163 153 147 164 182 183 175 157 136 154 153 160 174 171 155 174 203 201 206 223 236 244 196 224 243 13 328 311 247 282 297 266 261 264 228 217 208 207 205 200 201 206 202 199 198 194 195 197 194
350 349 348 347 351 353 4 104 63 23 67 140 93 10 358 340 315 185 202 305 197 300 215 176 240 207 214 105 158 175 167 191 233 189 164 161 143 153 165 135 171 171 156 154 174 189 161 116 147 153 161 179 190 186 195 218 217 215 217 224 233 212 210 237 316 325 298 163 71 349 277 210 87 270 246 185 198 205 199 198 205 204 199 198 196 197 199 198
350 349 348 350 356 6 47 121 20 15 130 154 331 343 349 334 305 185 207 309 123 3 47 148 211 180 169 135 147 188 173 142 313 7 98 148 135 138 156 153 238 162 149 148 169 198 149 135 159 160 163 169 194 218 196 200 226 230 201 204 209 207 215 225 229 268 271 235 34 352 279 251 55 337 337 231 200 200 198 202 207 204 199 201 201 199 199 200
350 348 348 352 0 13 42 206 348 17 157 262 326 337 344 331 288 167 221 275 108 20 296 135 303 138 127 129 138 182 170 134 73 65 42 24 14 315 168 170 176 134 146 157 166 187 152 150 157 155 163 175 202 222 185 190 225 219 141 167 186 199 213 209 203 215 285 316 299 230 253 262 330 25 8 328 222 199 206 213 214 211 206 206 206 202 199 199
350 346 345 351 359 9 24 4 351 45 315 337 330 336 343 335 153 163 258 124 82 350 191 91 269 138 99 110 101 115 107 35 137 92 9 16 37 286 188 174 170 136 134 196 181 151 154 173 171 166 179 198 213 217 181 184 222 225 151 156 172 187 200 191 192 190 129 294 247 160 202 232 90 27 14 11 21 7 320 273 241 226 218 214 212 207 202 200
350 343 340 345 348 356 10 16 49 100 333 339 335 335 338 357 150 229 257 103 49 345 90 21 140 117 57 121 67 35 47 22 62 37 346 23 34 20 164 150 141 121 96 248 178 118 78 229 162 155 180 214 221 228 179 186 211 198 152 153 144 146 167 179 204 169 133 238 224 177 207 229 74 33 14 20 20 1 341 325 287 243 227 220 220 218 210 204
347 340 336 340 340 339 346 348 30 358 336 335 335 332 336 123 188 243 168 81 8 303 64 325 257 284 109 125 69 27 45 36 17 22 30 37 27 30 67 129 121 116 95 34 73 85 85 270 74 96 52 294 260 327 192 194 189 120 148 157 119 110 127 121 105 157 161 222 231 205 212 230 104 45 23 17 4 347 336 336 334 305 252 226 216 222 219 211
344 338 339 344 343 333 330 330 325 327 329 333 336 335 7 137 255 215 91 69 349 6 25 333 327 31 83 108 80 23 48 39 4 15 48 34 29 35 27 296 96 113 131 101 75 67 87 105 52 53 18 340 250 142 86 187 183 150 167 168 147 132 134 124 110 182 200 210 233 198 192 203 90 47 18 6 358 352 348 342 342 339 318 263 216 211 217 214
341 342 356 2 360 347 321 314 313 316 323 332 343 352 178 205 0 70 32 343 4 1 354 352 0 59 91 87 64 27 55 57 15 33 58 40 49 50 30 21 357 193 161 141 148 105 92 80 359 313 76 6 337 173 125 109 172 200 190 175 176 162 157 170 160 180 210 208 75 111 179 132 88 61 13 5 4 357 354 350 345 343 339 321 251 213 209 210
342 -0 23 20 14 0 335 319 310 310 318 325 349 86 191 109 63 29 332 354 36 354 357 31 12 64 96 91 76 42 55 56 1 29 53 35 64 74 58 39 5 241 156 119 160 136 128 112 10 2 38 1 355 180 160 127 158 183 183 182 190 178 173 182 164 153 210 210 126 69 216 142 123 72 15 12 9 360 357 358 357 353 349 342 316 226 207 209
359 42 34 19 9 358 344 332 315 307 321 331 180 151 96 77 47 325 334 359 339 342 13 11 43 67 69 71 74 29 57 55 22 39 52 31 55 48 30 30 16 1 109 97 140 122 153 142 28 7 350 354 11 28 338 304 153 153 186 216 207 199 190 186 177 172 179 165 127 144 203 153 143 93 29 23 17 11 9 8 10 10 6 1 358 343 222 223
57 60 31 11 1 355 348 337 323 325 351 38 110 76 64 66 338 310 2 341 302 346 7 5 55 73 72 51 36 19 45 63 40 45 53 53 54 28 357 5 8 4 322 132 111 10 100 101 2 341 305 343 6 7 339 280 180 119 79 230 211 221 270 158 172 169 158 146 124 148 143 74 129 106 41 27 22 21 19 16 18 15 11 12 15 14 359 331
108 61 22 4 355 351 348 341 338 25 338 180 75 60 55 51 332 311 335 328 322 326 324 29 41 57 86 61 38 32 36 59 50 43 54 57 55 29 1 348 1 1 352 78 113 54 114 104 358 335 288 13 357 339 355 6 215 161 170 188 93 16 328 90 136 61 153 173 147 120 101 72 143 121 27 17 19 22 20 19 19 15 14 17 17 11 2 355
33 25 5 358 355 350 346 346 341 336 288 70 72 63 45 33 348 291 303 312 304 306 295 86 31 16 88 76 37 13 20 52 30 33 51 38 44 16 353 340 358 3 354 349 84 21 119 126 52 -0 4 9 353 292 157 31 6 209 171 129 87 81 289 318 163 153 186 183 118 65 88 66 122 159 14 11 15 17 15 16 17 17 19 19 14 7 0 354
358 354 334 355 355 349 345 351 333 283 90 65 75 81 79 22 10 329 319 313 264 19 52 81 36 355 57 98 63 4 349 49 27 47 68 35 45 10 348 338 353 4 353 306 194 55 347 128 102 20 337 344 358 311 184 21 18 39 84 88 84 196 181 205 200 177 188 177 116 89 100 58 38 20 10 10 13 11 10 14 18 19 18 15 11 7 4 1
6 2 0 355 352 347 351 356 325 223 72 64 72 79 50 20 16 358 345 335 308 34 50 62 44 46 52 83 107 32 25 65 64 67 73 25 48 27 3 339 335 356 353 338 71 113 328 120 129 25 340 308 8 36 2 358 17 66 101 78 357 321 204 184 206 214 209 170 136 134 128 63 41 24 13 12 13 11 13 19 22 20 16 13 11 7 6 8
18 16 8 352 350 349 12 19 12 40 58 71 50 45 35 9 2 -0 -0 8 19 19 54 62 33 70 75 69 87 59 41 54 60 69 57 24 69 76 25 4 326 337 342 4 68 90 309 41 114 23 2 304 45 41 26 12 16 32 61 46 35 356 279 144 70 14 305 178 152 149 128 74 45 30 16 12 17 18 19 23 25 20 17 16 15 12 10 11
24 43 338 348 350 2 55 35 43 28 49 77 29 25 27 16 1 358 1 14 35 41 58 75 59 70 99 77 66 63 55 59 51 60 73 35 27 76 42 19 316 307 319 8 47 26 349 38 85 52 40 76 94 63 15 13 17 31 44 28 4 355 210 188 167 109 21 356 141 143 129 87 41 31 17 11 21 25 21 22 26 22 19 17 14 15 18 17
36 61 331 347 357 62 85 44 39 24 57 68 35 16 15 22 10 356 357 9 39 54 51 59 57 49 65 70 60 61 73 68 37 44 87 61 33 24 351 332 289 283 333 47 34 14 13 67 68 76 62 87 123 120 358 356 355 33 45 29 1 356 329 247 187 144 106 77 96 108 112 96 45 26 24 18 22 27 24 23 26 25 20 16 12 13 20 23
35 355 340 354 3 84 85 55 59 49 59 61 44 37 29 36 20 7 9 14 23 44 43 39 37 39 48 52 66 79 69 61 43 49 104 87 48 17 325 324 310 276 8 72 74 15 34 73 70 90 88 206 204 218 340 358 341 52 41 23 16 12 346 337 25 111 117 104 127 128 115 107 64 31 28 26 25 29 31 25 24 25 20 16 12 9 13 20
28 236 326 3 17 85 99 60 104 84 68 57 62 52 38 48 36 25 29 26 20 29 50 43 28 34 50 49 66 77 45 63 69 51 83 96 50 0 341 350 1 29 30 23 22 24 27 24 93 124 133 183 209 201 183 61 19 45 25 6 15 21 9 354 4 52 99 56 356 142 122 108 79 54 37 29 26 28 31 27 24 25 21 16 14 12 11 13
26 176 256 5 26 54 78 31 103 102 97 77 64 45 30 61 48 25 36 41 33 31 54 51 16 29 58 65 71 59 27 42 89 90 94 90 54 359 357 356 5 37 52 52 33 8 81 38 0 176 180 197 191 153 172 145 29 35 358 359 17 18 6 353 185 118 108 90 2 68 108 118 100 71 50 35 26 24 26 25 24 24 23 20 16 15 15 13
42 44 299 353 22 43 62 20 14 85 108 88 65 32 22 65 65 11 28 41 32 34 53 46 1 17 47 55 71 57 31 39 73 111 117 76 67 30 349 347 10 25 37 49 38 28 117 67 15 25 64 111 111 89 59 9 55 50 359 6 16 12 0 342 167 88 102 124 94 55 95 125 106 64 52 42 31 26 23 21 24 23 21 21 17 16 18 19
97 51 355 339 10 23 51 36 12 22 55 30 61 23 11 36 46 16 29 40 26 27 49 46 23 24 41 50 80 65 34 42 61 74 73 41 64 45 335 354 16 6 3 26 21 7 118 89 34 64 74 76 91 99 108 65 68 38 358 7 11 9 11 27 65 66 95 142 111 90 132 122 95 55 50 46 33 27 21 18 20 20 20 21 17 16 19 21
53 113 320 309 354 10 23 17 14 42 52 35 56 49 23 38 51 33 32 55 35 15 29 49 29 26 36 43 90 87 52 57 58 44 35 39 47 35 12 31 26 4 360 26 22 16 101 100 90 92 91 87 79 91 100 66 67 46 15 20 15 18 38 54 57 49 9 95 113 137 138 107 88 63 48 42 35 29 21 16 15 18 22 21 20 20 20 20
44 106 112 318 68 61 0 333 345 49 54 41 47 47 32 44 57 44 12 40 54 18 15 70 35 20 34 42 75 101 94 100 90 73 27 52 46 34 41 61 35 14 14 40 37 11 78 101 116 116 108 95 60 52 54 34 58 79 53 42 43 55 65 68 66 66 76 95 111 125 118 91 67 55 41 30 30 31 28 23 20 21 22 20 22 24 20 18
53 90 0 74 78 40 0 342 342 48 48 33 47 49 35 49 59 60 12 21 68 33 27 95 82 41 44 60 79 90 68 52 79 92 166 148 68 66 48 24 20 16 16 32 32 348 318 112 115 126 119 100 48 10 23 22 61 95 74 63 86 98 84 75 77 80 88 107 122 126 116 93 58 51 49 28 23 29 35 32 27 22 19 20 23 23 20 17
70 102 296 117 61 4 358 2 352 51 47 28 48 65 82 69 57 75 62 31 40 66 101 124 111 73 57 69 80 89 97 93 65 64 176 171 35 34 45 25 270 358 15 24 6 351 10 122 128 149 142 124 109 337 5 23 99 120 94 75 78 98 96 79 74 75 87 119 141 145 124 99 71 59 56 29 18 25 32 31 27 21 18 19 20 20 19 15
70 135 0 126 85 14 0 352 348 62 65 19 25 41 53 64 21 23 97 68 34 47 96 140 130 97 85 87 85 89 173 194 38 21 326 355 10 5 52 80 126 337 0 22 19 2 55 138 146 171 161 142 157 295 345 34 186 164 113 90 76 93 108 106 91 74 64 113 158 141 114 110 104 78 45 29 13 18 29 28 25 21 17 15 15 15 16 12